Theta_e
323 318 314 311 297 293 289 294 301 302 303 305 311 315 315 320 318 311 328 334 337 343 353 357 360 359 360 361 362 362 361 361 361 360 359 358 357 356 355 353 351 348 345 343 341 339 337 337 336
321 319 309 304 292 287 290 297 300 303 306 309 312 315 317 319 326 329 332 335 336 346 352 354 360 358 359 360 361 361 361 361 361 360 359 358 357 356 354 352 349 346 344 342 339 337 337 337 336
322 322 305 299 291 290 292 299 301 306 310 309 312 317 321 322 327 331 336 335 338 344 349 352 360 358 358 358 359 360 360 360 361 360 359 358 357 356 354 351 348 345 343 339 337 337 338 338 337
314 313 308 293 292 297 299 303 305 307 308 309 314 314 321 329 328 331 337 336 337 342 346 355 359 358 357 357 357 358 360 360 360 359 359 358 356 355 353 349 348 345 342 340 339 339 338 338 338
314 303 294 290 293 298 303 305 304 303 304 306 309 311 318 326 334 339 334 335 335 339 344 354 358 357 357 356 356 356 357 358 359 359 358 357 356 353 351 349 347 344 343 342 342 341 342 342 342
309 301 290 290 295 301 303 304 304 303 304 306 307 309 316 328 339 338 333 331 336 337 345 352 357 356 356 355 354 354 354 355 356 357 357 356 355 353 351 349 347 346 347 347 345 346 345 345 345
307 300 292 292 296 300 303 306 304 303 303 304 308 306 319 324 339 341 334 332 333 340 345 349 352 354 356 355 353 353 352 352 353 353 354 354 354 352 351 349 348 347 348 348 347 347 347 346 346
310 303 299 299 299 300 307 307 304 305 307 311 311 305 315 323 334 339 338 335 336 343 343 346 348 350 349 350 354 353 352 351 350 351 352 352 351 351 350 348 348 347 348 348 348 348 348 347 347
308 296 296 301 301 303 309 304 311 312 308 309 311 316 325 328 324 326 329 335 339 341 342 343 345 345 346 346 350 353 352 351 351 350 351 348 341 342 343 345 345 347 348 348 349 348 348 348 348
302 295 298 306 307 306 309 309 311 310 310 309 309 314 317 324 323 320 328 334 336 338 340 341 342 343 343 347 345 345 343 344 344 343 342 341 337 336 342 343 345 346 348 348 349 349 348 346 340
302 298 304 306 308 310 309 310 313 310 306 311 309 311 313 314 315 324 320 334 338 341 341 341 340 340 340 340 343 344 342 342 342 340 339 338 338 336 339 335 338 337 344 338 344 343 342 338 337
295 301 305 307 309 309 307 311 309 310 310 315 316 317 314 313 312 316 322 330 329 340 341 342 341 339 337 336 341 342 341 341 340 340 338 338 336 333 332 333 333 334 334 334 335 337 337 337 338
294 298 301 302 304 307 311 309 309 309 314 317 317 317 316 314 314 316 321 325 326 337 341 343 342 339 337 334 337 339 338 338 338 339 338 338 335 332 332 330 330 332 331 333 332 335 336 336 337
294 296 296 298 299 300 300 301 307 310 315 315 315 315 315 316 314 314 317 321 323 329 332 342 342 340 335 333 336 337 337 337 337 337 338 337 335 333 330 329 329 330 331 332 333 332 333 333 333
295 291 294 296 298 297 301 298 299 305 309 310 313 314 315 316 316 315 315 318 324 326 329 335 339 337 335 335 337 338 339 339 338 338 338 338 335 334 331 330 328 329 330 329 332 330 330 330 332
291 288 284 292 296 298 298 292 301 304 304 305 309 313 314 315 316 315 316 316 319 324 333 335 342 339 336 336 338 339 340 340 340 340 339 339 337 335 333 332 330 330 330 331 332 331 329 329 330
286 282 284 289 295 294 293 291 297 301 301 301 304 308 313 315 315 315 316 317 318 322 324 336 339 340 339 337 338 339 341 341 341 339 341 340 339 337 336 334 334 330 331 332 332 330 330 328 328
284 284 286 286 292 293 291 291 295 298 299 298 298 301 306 312 315 315 316 317 318 320 322 335 339 341 341 340 341 341 341 339 339 338 339 342 341 339 337 337 334 336 331 330 330 328 328 327 327
290 288 287 290 294 291 290 291 294 296 296 296 298 299 300 303 309 317 316 316 317 320 323 327 341 340 341 341 340 338 340 337 337 337 340 341 344 342 337 337 338 337 335 334 331 329 326 326 328
290 287 286 290 294 291 290 291 294 295 295 295 296 298 299 302 304 310 315 314 313 316 326 327 337 344 345 343 343 336 335 331 333 335 337 341 345 343 342 338 339 338 336 333 331 329 325 325 328
289 287 288 289 293 292 290 288 291 295 296 297 297 298 299 299 301 306 312 315 313 315 323 327 331 341 345 343 334 332 332 333 333 333 334 339 345 346 343 342 341 339 337 334 331 329 326 324 326
286 294 293 291 288 281 289 280 287 290 292 294 296 296 297 299 301 303 306 312 313 314 322 327 328 332 335 333 333 330 329 328 330 331 335 341 344 345 344 342 340 339 338 335 332 331 328 327 323
290 294 291 290 287 283 285 280 285 289 289 292 294 295 297 298 300 301 304 308 313 317 324 328 329 328 329 330 331 330 328 329 332 334 336 340 340 344 345 343 340 339 337 337 335 331 330 327 324
295 291 289 287 283 277 282 281 283 285 289 290 295 298 301 303 304 304 305 306 308 315 325 325 325 326 328 329 329 327 328 331 334 334 335 337 339 340 342 342 340 339 337 336 333 333 331 328 326
289 284 277 276 276 276 285 282 284 290 293 296 298 299 301 302 302 303 304 305 306 310 321 326 325 325 325 326 329 330 329 331 333 335 338 337 337 335 338 339 338 336 336 336 333 332 330 328 325
285 284 277 275 275 277 286 279 284 294 298 299 300 300 301 301 302 304 306 307 308 307 316 323 324 324 324 326 327 332 330 332 333 337 340 340 340 339 339 339 339 339 337 335 334 335 331 328 325
285 281 286 281 282 278 280 284 290 295 296 298 298 299 298 300 301 304 308 308 310 310 312 320 321 322 322 325 328 331 333 332 336 338 341 340 339 339 338 338 338 337 335 333 331 329 328 327 325
288 290 279 279 274 274 279 281 282 290 293 295 295 296 297 300 302 305 307 307 311 310 311 312 316 319 320 323 328 332 335 337 338 340 340 339 338 340 338 337 337 335 335 332 330 327 328 326 324
285 283 284 282 280 273 276 278 291 292 293 293 295 298 299 301 303 306 306 307 307 320 321 321 316 317 322 327 332 333 336 340 341 341 340 338 339 338 338 338 335 335 332 330 328 327 327 325 324
290 286 287 276 276 281 281 280 293 293 294 296 297 298 299 301 304 307 307 306 307 319 320 321 320 323 328 335 337 337 338 340 340 341 340 339 339 338 339 337 334 333 332 329 328 327 328 325 324
Wind_Speed
5 5 1 4 4 5 5 10 6 13 9 5 9 4 12 8 12 8 4 12 18 18 16 17 19 21 22 21 20 18 16 16 15 14 14 14 13 13 13 12 11 10 9 9 9 8 8 7 5
4 2 4 3 5 1 7 5 13 10 11 15 19 4 2 3 3 9 14 13 23 19 15 14 20 21 22 22 21 19 18 17 16 15 15 14 14 13 12 12 11 10 9 9 8 8 8 7 6
4 2 4 4 4 7 6 4 3 9 17 11 7 3 8 8 3 17 9 16 21 17 15 14 20 21 22 23 22 21 19 18 17 17 16 16 14 13 12 11 10 10 9 8 8 8 7 7 6
0 4 4 3 11 8 6 10 12 13 11 8 7 1 3 10 20 10 18 21 21 16 16 18 21 21 22 23 23 21 20 19 18 17 16 15 15 14 12 12 10 10 10 9 8 8 7 6 5
2 2 2 3 11 6 7 6 7 10 8 11 14 7 5 9 12 22 21 20 23 16 14 16 22 21 22 22 23 22 20 19 18 17 16 16 14 14 13 12 12 11 10 10 10 9 7 6 6
1 2 2 6 11 8 7 5 7 4 7 12 15 10 0 1 16 19 21 19 18 20 14 13 19 20 22 21 23 22 21 19 18 17 16 15 14 14 14 14 14 12 12 11 11 10 9 8 7
3 3 5 4 8 10 7 7 10 6 6 6 7 6 2 4 8 18 17 15 15 14 14 12 12 15 20 19 20 22 21 19 18 17 16 16 15 14 14 14 14 12 12 11 11 11 10 9 8
3 4 3 5 7 9 5 5 6 5 15 5 4 5 1 3 8 12 12 11 11 13 13 12 10 10 10 10 17 19 20 20 18 17 17 16 15 14 13 13 13 13 12 12 12 11 11 10 9
0 2 5 7 7 6 13 4 9 7 6 4 6 5 7 5 9 8 10 7 8 8 10 10 10 8 7 7 10 13 18 18 17 16 16 13 6 7 10 11 14 14 13 13 12 12 11 10 10
6 6 9 5 5 8 14 13 12 14 18 6 5 14 14 9 8 7 11 13 12 15 13 14 13 12 9 8 8 7 7 7 7 7 8 6 7 6 8 11 15 15 14 13 13 12 12 11 4
5 6 6 8 9 10 17 21 12 11 12 14 2 3 7 7 8 6 10 10 21 16 12 15 15 14 14 10 7 4 5 5 5 7 7 6 6 5 5 3 5 5 12 4 8 7 5 5 4
6 7 9 12 14 13 16 16 17 12 13 17 13 3 1 6 7 12 9 18 9 11 14 14 14 15 15 10 9 8 7 6 6 8 10 7 5 5 5 5 6 5 5 5 5 4 5 6 7
6 9 9 10 13 12 16 21 22 24 14 14 21 9 2 5 9 7 4 10 9 13 11 13 13 15 14 13 9 8 8 8 8 8 10 9 7 7 6 6 6 6 5 6 5 6 6 7 8
4 5 8 6 8 5 8 14 13 23 14 15 15 20 4 5 8 6 3 5 6 11 12 13 14 13 13 12 13 10 9 8 7 8 10 12 9 8 7 6 8 7 7 6 7 7 7 7 5
5 6 7 4 1 4 6 14 19 10 8 13 16 18 14 7 7 9 8 6 8 8 12 13 13 7 11 13 10 8 8 8 8 8 10 12 11 10 9 7 7 7 7 7 6 5 4 4 5
6 4 4 4 8 5 5 22 16 8 11 17 13 14 22 11 10 9 10 8 6 7 11 11 12 14 11 9 9 7 8 8 8 8 7 12 13 11 9 7 7 7 6 7 7 5 4 6 5
3 4 4 7 7 6 4 17 7 7 7 9 11 13 14 21 10 11 10 9 10 10 10 15 17 15 15 9 7 8 8 7 7 5 6 10 12 12 10 8 7 7 6 6 7 4 4 4 4
6 5 2 2 5 2 9 16 9 6 8 7 8 8 12 14 19 11 11 10 9 9 10 11 15 18 18 11 5 3 3 4 4 5 5 7 8 12 11 7 8 8 5 5 4 4 4 4 5
6 5 4 3 6 4 10 15 14 7 7 8 9 13 13 14 17 19 12 11 9 7 7 9 14 15 11 5 5 3 7 3 4 4 7 8 8 11 11 8 8 7 8 9 7 5 6 3 3
6 6 6 6 6 6 7 22 17 7 6 7 9 12 12 15 15 18 19 10 9 10 9 9 14 14 13 11 10 5 6 4 4 5 7 9 10 10 10 10 9 8 5 6 6 5 3 2 3
5 5 8 9 12 7 5 19 16 15 8 7 8 10 14 11 14 17 20 20 12 10 10 12 14 15 16 16 6 3 4 2 3 3 3 6 9 10 11 11 9 8 6 5 5 6 7 4 1
3 6 8 10 8 4 4 18 12 10 13 12 13 13 13 16 14 15 17 21 17 14 10 13 16 14 14 13 10 8 7 6 4 5 4 4 8 10 10 10 8 6 5 6 6 5 4 5 4
6 6 4 8 11 3 5 5 9 8 17 17 17 12 12 11 15 15 17 17 22 12 9 11 15 15 11 10 11 8 5 5 3 3 5 6 6 8 9 9 7 6 5 6 7 5 6 3 4
1 3 6 5 2 4 5 6 17 5 12 7 9 14 14 16 21 20 22 19 18 14 10 10 9 11 10 11 9 10 11 8 6 4 4 4 5 5 7 8 7 6 5 6 5 5 7 5 4
6 5 5 6 3 6 5 8 14 9 9 3 6 11 15 13 15 19 20 21 19 10 12 12 15 14 10 9 10 11 11 10 10 7 6 7 5 3 6 6 6 4 5 6 6 6 6 6 4
4 6 5 4 4 7 12 8 8 2 5 2 5 7 11 13 14 18 20 20 23 20 15 14 15 17 14 13 12 10 10 8 7 8 8 8 9 8 7 6 7 7 7 6 6 5 5 5 4
3 5 6 4 6 7 6 8 7 3 6 6 9 10 11 13 16 18 21 21 24 21 17 17 16 17 16 16 12 10 11 9 10 10 10 8 8 7 9 8 7 7 7 8 7 5 5 5 5
2 3 4 3 4 5 4 7 9 6 9 12 17 15 16 16 18 16 17 20 25 16 13 11 13 17 14 11 11 11 12 11 9 10 11 11 9 10 9 7 7 8 8 7 7 5 5 6 3
5 1 3 2 5 4 4 7 5 6 4 11 15 14 17 17 21 15 16 21 24 9 7 9 9 11 11 13 11 10 10 10 10 10 11 12 12 11 11 10 9 10 8 7 6 6 6 6 5
6 6 4 4 4 4 4 12 5 4 6 6 11 12 16 18 21 15 14 21 19 18 4 6 7 9 9 11 11 11 10 9 10 10 11 12 12 11 11 10 10 10 9 7 7 7 6 6 6
Wind_Direction
310 295 120 39 60 66 249 256 298 295 339 254 276 183 185 161 156 207 163 147 131 142 156 167 173 155 146 144 142 144 142 144 144 144 145 145 145 142 140 143 146 150 152 153 151 151 148 142 135
296 330 43 84 100 139 268 250 270 277 263 293 294 138 114 150 212 125 123 172 144 146 152 166 175 159 150 147 145 147 149 151 152 152 154 155 155 154 152 155 158 163 164 164 159 159 157 154 157
266 180 90 127 178 191 234 240 270 283 295 276 279 166 147 178 69 147 130 145 136 146 152 168 175 164 156 150 149 150 156 158 159 159 162 164 165 162 161 163 172 173 176 175 170 172 166 169 165
61 7 23 113 246 253 250 297 308 311 310 317 264 162 92 191 152 181 146 145 140 151 156 169 173 170 159 155 155 157 160 161 165 167 168 171 172 167 167 172 182 187 183 182 182 183 183 184 173
36 68 96 245 259 267 284 288 297 304 287 322 315 286 144 173 135 140 149 157 148 156 158 168 175 173 163 162 158 162 164 167 168 170 173 177 177 174 173 182 190 195 195 187 192 191 196 201 194
3 120 87 230 259 284 274 293 281 293 286 322 345 316 19 334 136 153 154 155 153 153 157 167 177 178 165 168 166 166 167 170 170 172 175 179 182 183 182 187 197 197 200 195 199 195 197 207 206
181 120 216 259 271 288 285 314 288 273 281 297 290 322 346 84 172 153 152 143 145 144 148 159 177 184 169 174 175 168 169 174 174 175 179 180 185 189 186 190 197 201 203 200 205 198 200 209 213
202 117 218 224 253 276 269 324 285 320 313 299 352 299 249 205 153 134 128 129 129 136 150 160 171 175 170 180 183 177 173 174 178 181 182 183 186 191 193 195 198 204 211 207 210 205 204 212 219
177 98 230 231 233 275 299 324 306 287 308 336 318 2 338 141 110 111 109 101 115 144 163 161 165 167 167 170 191 187 182 178 181 186 186 182 175 187 196 200 203 206 210 217 215 211 211 217 226
175 182 219 234 277 289 290 305 328 339 322 315 54 348 1 16 114 133 160 163 175 170 177 174 172 171 166 179 186 185 193 181 181 181 186 178 179 181 190 203 211 214 213 218 220 217 215 225 219
218 235 257 269 283 286 285 292 305 299 300 299 316 333 354 354 0 293 163 194 182 187 173 180 181 174 174 182 173 186 192 177 176 177 182 185 185 191 195 180 212 203 219 204 217 220 212 208 217
258 255 242 252 255 261 270 285 289 273 259 289 296 222 159 330 303 306 224 185 179 175 197 185 182 179 183 177 181 188 185 187 187 191 182 181 190 195 192 183 196 195 204 184 192 205 212 207 223
250 278 269 258 261 257 263 269 273 278 276 281 295 294 216 314 307 317 289 197 180 177 189 197 186 186 186 186 178 181 195 194 195 188 190 186 195 199 195 191 191 202 192 187 191 206 214 216 223
293 288 276 275 281 290 268 272 279 275 279 274 283 293 282 233 271 309 277 234 194 194 196 182 196 210 173 191 181 186 189 189 188 196 197 193 195 199 198 190 199 195 202 195 197 203 212 220 211
298 310 319 297 261 265 280 275 256 283 312 280 267 271 269 229 272 262 267 225 256 194 196 181 183 206 192 186 188 184 190 186 194 205 195 190 195 194 194 190 195 196 202 182 200 202 196 203 213
340 347 323 339 359 275 155 269 275 264 270 279 285 268 275 251 240 256 263 263 206 258 173 186 185 184 190 198 181 187 196 197 195 198 194 192 196 191 193 186 194 192 182 186 194 195 200 211 200
303 250 264 314 250 253 202 275 316 329 295 289 285 276 259 268 245 245 258 255 269 193 246 187 178 184 189 197 186 186 195 204 206 186 190 192 195 191 189 193 193 188 181 186 190 197 180 197 204
242 260 274 264 336 2 295 287 288 304 311 309 318 324 308 281 262 232 237 243 249 251 196 232 186 189 186 189 165 162 202 226 219 209 195 192 187 189 192 190 185 192 184 182 168 171 193 201 195
258 246 280 252 263 291 283 279 284 292 315 315 304 304 299 295 295 276 233 236 238 238 219 206 191 193 173 162 161 185 216 204 224 218 196 211 190 191 189 193 190 191 192 201 190 163 170 194 166
324 313 301 269 282 294 288 287 289 284 270 280 286 296 298 296 299 291 275 249 230 231 201 193 235 179 184 186 190 177 180 192 180 197 212 199 192 184 186 184 191 183 163 184 179 153 141 154 183
1 354 342 320 323 313 295 287 297 296 282 278 283 279 290 286 295 301 293 270 239 214 206 192 207 205 189 189 158 100 91 60 137 185 202 197 186 182 182 183 182 172 169 184 178 168 160 150 210
334 340 326 323 332 274 272 281 280 301 303 300 293 286 282 289 292 290 293 285 261 239 199 201 199 207 199 176 172 167 174 176 199 187 188 178 170 181 177 177 171 160 167 180 177 168 156 132 159
228 318 291 283 275 281 256 259 277 310 293 292 293 294 299 296 294 288 290 286 271 244 211 200 206 196 199 182 186 173 169 190 160 178 175 164 158 170 164 168 158 159 172 185 158 158 150 137 143
325 335 319 300 183 229 197 208 276 249 260 289 316 331 353 342 335 311 298 290 279 257 208 188 188 209 187 179 184 179 190 184 158 177 168 149 152 158 157 164 161 167 165 170 160 169 149 158 141
59 44 344 333 351 236 240 268 264 295 324 51 333 324 328 329 322 312 305 309 284 248 234 204 186 203 205 190 191 195 197 179 180 176 164 152 149 148 174 159 163 161 174 162 146 154 146 157 156
233 173 164 259 291 304 304 257 257 92 87 286 287 276 303 316 318 310 299 299 284 268 225 208 198 205 195 201 206 197 193 187 181 171 165 173 171 173 167 165 165 158 153 142 153 145 144 157 162
263 221 217 241 269 264 241 283 293 318 308 294 284 308 313 315 312 306 306 306 300 254 218 205 195 203 202 199 200 187 193 179 182 169 162 165 161 161 166 159 158 141 140 137 141 137 150 156 166
53 288 15 13 289 275 272 282 261 296 295 328 319 329 315 315 309 309 311 308 310 250 208 196 195 199 204 201 197 195 187 178 161 156 158 163 158 154 152 151 139 134 139 139 140 142 151 154 164
349 341 64 125 164 214 300 248 225 270 311 295 308 319 320 317 304 302 307 324 320 280 177 168 175 186 192 190 186 166 172 163 157 162 161 163 154 150 154 153 137 142 144 148 143 157 157 163 165
169 199 170 131 261 243 255 274 312 184 256 295 313 318 323 312 302 264 336 328 302 292 207 224 186 170 178 168 157 160 158 143 150 164 160 156 151 159 153 143 139 147 151 154 158 166 163 162 178